{"data":{"norad_id":39491,"epoch":"2026-09-20T03:39:55.421856Z","epoch_age_seconds":51847,"freshness":"FRESH","line1":"1 39491U 13078B   26263.15272479  .00001442  00000+0  98572-4 0  9996","line2":"2 39491  82.4139 157.2521 0014338 238.8094 121.1727 15.05342177693094","mean_motion":15.05342177,"eccentricity":0.0014338,"inclination_deg":82.4139,"raan_deg":157.2521,"arg_perigee_deg":238.8094,"mean_anomaly_deg":121.1727,"bstar":9.8572e-5,"rev_number":69309,"period_min":95.659314008578,"perigee_km":540.52131549837,"apogee_km":560.38974744162,"semimajor_km":6928.59253147,"source":"CELESTRAK","updated_at":"2026-09-20T09:00:47.876982Z"}}